User: anonymous   Login
Location: Unspecified
(0.0000°N, 0.0000°E)
Time: 19:04:42
(UTC+00:00)
Language:

Picosat 4 - Orbit

View from above orbital plane
View from above orbital plane
View from above satellite
View from above satellite

Ground track
Ground track

The orbit data is extracted from the following two-line orbital elements,

1 26092U 00004K   17084.07572957 +.00000155 +00000-0 +63407-4 0  9990
2 26092 100.2091 116.1095 0034456 058.9334 301.5224 14.43243990899564
Epoch (UTC): 25 March 2017 01:49:03
Eccentricity: 0.0034456
inclination: 100.2091°
perigee height: 723 km
apogee height: 772 km
right ascension of ascending node: 116.1095°
argument of perigee: 58.9334°
revolutions per day: 14.43243990
mean anomaly at epoch: 301.5224°
orbit number at epoch: 89956

The dashed part of the orbit path shows where the satellite is in the earth's shadow,  

DLR